Mayport NS, FL

9:46 AM EDT on May 28, 2017 (GMT -0400)
Mayport Naval Station / Adm. David L. McDonald Field

Weather History for KNRB - December, 2013

Change the Weather History Date:

Thursday, December 26, 2013

  Actual Average Record
Temperature  
Mean Temperature 54 °F -  
Max Temperature 57 °F 60 °F 79 °F (2015)
Min Temperature 51 °F 47 °F 33 °F (1999)
Degree Days  
Heating Degree Days 11    
Growing Degree Days 4 (Base 50)    
Moisture  
Dew Point 49 °F    
Average Humidity 80    
Maximum Humidity 88    
Minimum Humidity 74    
Precipitation  
Precipitation 0.00 in - - ()
Sea Level Pressure  
Sea Level Pressure 30.25 in    
Wind  
Wind Speed 9 mph (North)    
Max Wind Speed 14 mph    
Max Gust Speed 17 mph    
Visibility 9 miles    
Events      
Averages and records for this station are not official NWS values.
T = Trace of Precipitation, MM = Missing Value Source: NWS Daily Summary

Daily Weather History Graph

Daily Weather History Graph

Search for Another Location

Airport or City:

Trip Planner

Search our weather history database for the weather conditions in past years. The results will help you decide how hot, cold, wet, or windy it might be!

Date:

Astronomy

Dec. 26, 2013 Rise Set
Actual Time 7:20 AM EST 5:32 PM EST
Civil Twilight 6:54 AM EST 5:58 PM EST
Nautical Twilight 6:24 AM EST 6:28 PM EST
Astronomical Twilight 5:54 AM EST 6:58 PM EST
Moon 1:06 AM EST (12/26) 12:50 PM EST (12/26)
Length of Visible Light 11h 04m
Length of Day
10h 11m
Last Quarter, 38% of the Moon is Illuminated
Dec 26
Last Quarter
Jan 1
New
Jan 7
First Quarter
Jan 15
Full
Jan 24
Last Quarter

Hourly Weather History & Observations

Time (EST) Temp. Dew Point Humidity Pressure Visibility Wind Dir Wind Speed Gust Speed Precip Events Conditions
12:52 AM 57.0 °F 52.0 °F 83% 30.26 in 9.0 mi NNW 6.9 mph 17.3 mph N/A   Overcast
1:52 AM 55.9 °F 51.1 °F 84% 30.25 in 9.0 mi North 9.2 mph 16.1 mph N/A   Overcast
2:32 AM 55.9 °F 52.0 °F 87% 30.23 in 8.0 mi NNE 10.4 mph - 0.00 in   Overcast
2:52 AM 55.9 °F 52.0 °F 87% 30.22 in 8.0 mi NNE 13.8 mph - 0.00 in   Overcast
3:06 AM 57.0 °F 53.1 °F 87% 30.22 in 9.0 mi North 11.5 mph - N/A   Mostly Cloudy
3:49 AM 57.2 °F 53.6 °F 88% 30.23 in 8.0 mi North 8.1 mph - N/A   Mostly Cloudy
3:52 AM 57.0 °F 53.1 °F 87% 30.23 in 8.0 mi North 6.9 mph - N/A   Mostly Cloudy
4:52 AM 57.9 °F 54.0 °F 87% 30.20 in 9.0 mi NNE 11.5 mph - N/A   Overcast
5:52 AM 57.9 °F 54.0 °F 87% 30.21 in 9.0 mi North 9.2 mph - N/A   Overcast
5:55 AM 57.9 °F 54.0 °F 87% 30.21 in 7.0 mi North 10.4 mph - N/A   Overcast
6:52 AM 55.9 °F 52.0 °F 87% 30.24 in 8.0 mi Variable 5.8 mph - N/A   Overcast
7:52 AM 51.1 °F 46.0 °F 83% 30.26 in 10.0 mi NNW 4.6 mph - N/A   Overcast
8:52 AM 51.1 °F 46.0 °F 83% 30.27 in 10.0 mi NNW 3.5 mph - N/A   Overcast
9:52 AM 53.1 °F 46.0 °F 77% 30.30 in 10.0 mi Variable 5.8 mph - N/A   Overcast
10:25 AM 53.1 °F 45.0 °F 74% 30.30 in 10.0 mi North 9.2 mph - N/A   Overcast
10:52 AM 54.0 °F 46.0 °F 75% 30.29 in 10.0 mi North 10.4 mph - N/A   Overcast
11:52 AM 54.0 °F 46.0 °F 75% 30.27 in 10.0 mi North 10.4 mph - N/A   Overcast
12:52 PM 54.0 °F 46.9 °F 77% 30.24 in 10.0 mi North 9.2 mph - N/A   Overcast
1:52 PM 54.0 °F 46.9 °F 77% 30.22 in 10.0 mi North 9.2 mph - N/A   Mostly Cloudy
2:52 PM 53.1 °F 46.9 °F 80% 30.22 in 10.0 mi North 13.8 mph - N/A   Overcast
3:52 PM 55.0 °F 46.9 °F 74% 30.22 in 10.0 mi North 9.2 mph - N/A   Overcast
4:31 PM 55.0 °F 46.9 °F 74% 30.23 in 10.0 mi North 11.5 mph - N/A   Overcast
4:52 PM 55.0 °F 46.9 °F 74% 30.23 in 10.0 mi North 13.8 mph - N/A   Overcast
5:52 PM 54.0 °F 46.0 °F 75% 30.25 in 10.0 mi North 8.1 mph - N/A   Overcast
6:11 PM 54.0 °F 46.0 °F 75% 30.26 in 10.0 mi NNW 6.9 mph - N/A   Overcast
6:52 PM 53.1 °F 45.0 °F 74% 30.27 in 10.0 mi North 6.9 mph - N/A   Overcast
7:52 PM 54.0 °F 46.0 °F 75% 30.27 in 10.0 mi North 9.2 mph - N/A   Mostly Cloudy
8:52 PM 54.0 °F 46.9 °F 77% 30.27 in 10.0 mi North 10.4 mph - N/A   Partly Cloudy
9:52 PM 53.1 °F 48.0 °F 83% 30.28 in 10.0 mi North 6.9 mph - N/A   Mostly Cloudy
10:52 PM 54.0 °F 48.0 °F 80% 30.29 in 10.0 mi North 6.9 mph - N/A   Overcast
11:07 PM 54.0 °F 48.9 °F 83% 30.27 in 10.0 mi North 6.9 mph - N/A   Overcast
11:52 PM 55.9 °F 50.0 °F 80% 30.26 in 10.0 mi NNE 12.7 mph - N/A   Overcast